NOAA 16 DEB, 42372

Orbit data source: Space-Track

NOAA 16 DEB, 42372 is space debris in SSO originally from a launch on Thu, 21 Sep 2000 UTC launched from the Air Force Western Test Range (AFWTR). Debris objects in space refer to the collection of defunct objects orbiting the Earth. Examples of debris include non-operational satellites, rocket bodies, and fragments generated from explosions, collisions, or faulty payload assembly.

Loading next visibility...
Identifier
42372, 2000-055RQ
Orbit
SSO
Last TLE update
23 hours ago
Origin
Manufacturer
Unknown
Mission
Spacecraft
Bus & Motor
Unknown
Mass
Unknown
Launch date (UTC)
2000-09-21 (25 years ago)
Launch vehicle
Unknown
Launch site
Air Force Western Test Range (AFWTR)
Object type
Payload
Rocket body
Debris
Shape & HBR
Unknown
Radar Cross Section
Small (<0.1 m²)

Expand to show TLE details & history

TLE from 23 hours ago
0 NOAA 16 DEB
1 42372U 00055RQ  25191.53188409  .00002484  00000-0  97137-3 0  9992
2 42372  98.8577 302.7780 0009743 242.3050 117.7144 14.30454254478466
Epoch: 2025-07-10T12:45Z
TLE epoch observation values (Epoch: 2025-07-10T12:45:54.785Z)
Latitude
0.00002°
Longitude
-177.39709°
Altitude
796.391 km
Speed
7.454 km/s
True Right ascension
20h 11m 06s
True Declination
0° 00' 00"
Sunlit
Object was in full shadow at epoch
Visualization orbit readout
Latitude
0.31658°
Longitude
3.6131°
Altitude
789.581 km
Speed
7.461 km/s
Apparent Right ascension
09h 38m 22s
Apparent Declination
-20° 19' 21"
Sunlit
Object is in daylight
Visualization observer readout
Local Sidereal Time
23:43:37
Azimuth
63.058° ENE
Elevation
-56.859°
Doppler factor
1
Orbital elements
Apogee altitude
794.346 km
Perigee altitude
780.383 km
Semi-major axis
7,165.502 km
Eccentricity
0.00097
Inclination
98.8577°
RAAN
302.778°
Arg. of periapsis
242.305°
True anomaly
Unknown
Mean anomaly
117.7144°
Eccentric anomaly
Unknown
Mean motion
3.57827 °/min
Orbital period
100.61 mins
BSTAR
0.00097137
Loading maneuver chart data...
Loading SW <> Apogee altitude chart data...
Loading historical data...
Loading historical data...
Loading historical data...
Loading historical data...
Loading historical data...
Loading historical data...
Loading historical data...

NOAA 16 DEB Visibility forecast

Observer location: undefined°, undefined°

Span
Click to sort rows by Start time (UTC) header in descending order
Start Az.
Max El. time (UTC)
Max El. Az.
Max El.
End time (UTC)
End Az.
8 mins2025-07-11 19:34:35.367Z38.967° NE2025-07-11 19:38:35.367Z99.172° ESE27.508°2025-07-11 19:42:35.367Z156.279° SSE
7 mins2025-07-11 21:14:35.367Z344.429° N2025-07-11 21:17:35.367Z298.658° NW26.927°2025-07-11 21:21:35.367Z237.479° WSW
8 mins2025-07-12 06:52:35.367Z133.866° SE2025-07-12 06:55:35.367Z78.71° E35.684°2025-07-12 07:00:35.367Z359.353° N
5 mins2025-07-12 08:33:35.367Z238.317° WSW2025-07-12 08:35:35.367Z268.176° W19.498°2025-07-12 08:38:35.367Z307.889° NW
|